Regional Weather Roundup
Issued by NWS Lake Charles, LA

Home | Current Version | Previous Version | Text Only | Print | Product List | Glossary On
Versions: 1 2 3 4 5 6 7 8 9 10 11 12 13 14 15 16 17 18 19 20 21 22 23 24 25 26 27 28 29
000
ASUS44 KLCH 171010
RWRLCH
RWRLCH
REGIONAL WEATHER ROUNDUP
NATIONAL WEATHER SERVICE LAKE CHARLES LA
500 AM CDT THU APR 17 2014

Note: "fair" indicates few or no clouds below 12,000 feet with no
significant weather and/or obstructions to visibility.


ACROSS SOUTHEAST TEXAS

CITY           SKY/WX    TMP DP  RH WIND       PRES   REMARKS
BEAUMONT       CLOUDY    59  52  77 E10       30.08R
BEAUMONT CITY  CLOUDY    56  52  87 NE5       30.08F
ORANGE         CLOUDY    56  52  86 NE6       30.11S
JASPER         MOCLDY    51  47  89 E3        30.13S
$$

ACROSS CENTRAL LOUISIANA

CITY           SKY/WX    TMP DP  RH WIND       PRES   REMARKS
LEESVILLE      MOCLDY    49  46  90 CALM      30.11F
FULLERTON      CLOUDY    48  45  89 CALM      30.10S
ALEXANDRIA INT MOCLDY    46  45  96 CALM      30.13S
ESLER FIELD    PTCLDY    41  38  89 CALM      30.15R
DERIDDER         N/A     50  47  89 E3        30.13S
OAKDALE        MOSUNNY   45  44  96 CALM      30.13S
OPELOUSAS        N/A     46  45  96 E5        30.13S
$$

ACROSS SOUTHWEST AND SOUTH CENTRAL LOUISIANA

CITY           SKY/WX    TMP DP  RH WIND       PRES   REMARKS
SULPHUR        CLOUDY    55  50  82 E8        30.11S
LAKE CHARLES   CLOUDY    54  49  83 E7        30.11R
CHENNAULT INT  NOT AVBL
CAMERON PHI      N/A     57  52  82 E12       30.09S
DEQUINCY       CLOUDY    51  48  90 CALM      30.11S
JENNINGS       PTSUNNY   50  48  93 E6        30.12S
LAFAYETTE      CLOUDY    49  48  97 NE5       30.13R
NEW IBERIA     CLOUDY    53  48  83 NE9       30.12S
ABBEVILLE        N/A     56  56 100 NE5       30.11F
PATTERSON      CLOUDY    55  48  76 NE7         N/A
SALT POINT       N/A     58  50  75 CALM      30.10S
$$

SELECTED SITES ACROSS THE REGION

CITY           SKY/WX    TMP DP  RH WIND       PRES   REMARKS
HOUSTON BUSH   CLOUDY    55  53  93 E6        30.06S
HOUSTON HOBBY  CLOUDY    61  55  81 E3        30.05R
GALVESTON      CLOUDY    65  58  78 E14       30.05F
COLLEGE STAT   CLOUDY    55  52  89 E9        30.04S
CONROE         CLOUDY    53  50  89 CALM      30.07S
HUNTSVILLE     CLOUDY    53  49  86 E3        30.07S
LUFKIN         MOCLDY    54  47  77 E8        30.10S
SHREVEPORT     PTCLDY    45  40  82 CALM      30.13S
MONROE         CLEAR     43  40  89 CALM      30.18S
NATCHEZ MS     PTCLDY    43  39  87 CALM      30.17R
BATON ROUGE    CLOUDY    50  45  83 NE5       30.14F
N.O. INTL ARPT CLOUDY    57  52  83 NE5       30.12R
SLIDELL        CLOUDY    51  48  89 N6        30.12S
$$

MARINE REPORTS

STATION/POSITION TIME  TEMP    WIND        PRES    VSBY  WAVE
                       AIR SEA DIR/SP/G                  HT/PER
                 (UTC) (F)     (DEG/KT/KT) (MB)    (MI)  (FT/S)
BUOY 30 S HIGH I 1000   65 66  120/ 16/ 17 1017.0S         4/ 5
SEA RIM ST PARK  1000   63     110/  9/ 12 1018.6S
PORT ARTHUR      1000      65   80/  8/ 11 1018.4F
SABINE PASS N    1000   63 64  120/  9/ 12 1018.1F
TEXAS POINT      1000   63 65  120/ 13/ 16 1018.4S
CALCASIEU PASS   1000   56 65   90/ 11/ 14 1019.5S
LK CHARLES BEACH 1000   54 65              1020.2R
MARSH ISLAND     0900   61     130/ 11/ 14   N/A
FRESH WATER LOCK 1000   55 62   40/  5/  8 1018.9S
AMERADA PASS     1000   56 60   20/  3/  7 1019.1F
$$



USA.gov is the U.S. government's official web portal to all federal, state and local government web resources and services.